This is the latest recevied weather packets stored in our database for station/object K0FJ-1. If no packets are shown the sender has not sent any weather packets the latest 10 day(s).
| Time | Temp. | Humidity | Pressure | Rain* | Wind** | Luminosity | Snow |
|---|---|---|---|---|---|---|---|
| 1788473426 | 36.67° C | 24% | 1011.7 hPa | 0 mm | - | - | - |
| 1788473103 | 36.67° C | 24% | 1011.7 hPa | 0 mm | - | - | - |
| 1788472803 | 36.67° C | 26% | 1011.7 hPa | 0 mm | - | - | - |
| 1788472503 | 36.67° C | 28% | 1011.8 hPa | 0 mm | - | - | - |
| 1788472203 | 36.67° C | 27% | 1011.7 hPa | 0 mm | - | - | - |
| 1788471903 | 36.67° C | 26% | 1011.7 hPa | 0 mm | - | - | - |
| 1788471603 | 36.11° C | 27% | 1011.8 hPa | 0 mm | - | - | - |
| 1788471303 | 36.11° C | 28% | 1011.8 hPa | 0 mm | - | - | - |
| 1788471003 | 36.11° C | 30% | 1011.7 hPa | 0 mm | - | - | - |
| 1788470703 | 36.11° C | 30% | 1011.7 hPa | 0 mm | - | - | - |
| 1788470403 | 36.11° C | 28% | 1011.8 hPa | 0 mm | - | - | - |
| 1788470103 | 36.11° C | 31% | 1011.8 hPa | 0 mm | - | - | - |
| 1788469803 | 35.56° C | 31% | 1011.8 hPa | 0 mm | - | - | - |
| 1788469503 | 35.56° C | 32% | 1011.8 hPa | 0 mm | - | - | - |
| 1788469203 | 35.56° C | 32% | 1011.8 hPa | 0 mm | - | - | - |
| 1788468903 | 35.56° C | 32% | 1012 hPa | 0 mm | - | - | - |
| 1788468603 | 35.56° C | 31% | 1012 hPa | 0 mm | - | - | - |
| 1788468303 | 35.56° C | 33% | 1012 hPa | 0 mm | - | - | - |
| 1788468003 | 35° C | 34% | 1012 hPa | 0 mm | - | - | - |
| 1788467703 | 35° C | 36% | 1012 hPa | 0 mm | - | - | - |
| 1788467403 | 35° C | 35% | 1012.1 hPa | 0 mm | - | - | - |
| 1788467103 | 35° C | 34% | 1012.1 hPa | 0 mm | - | - | - |
| 1788466803 | 35° C | 34% | 1012.1 hPa | 0 mm | - | - | - |
| 1788466503 | 35° C | 35% | 1012.2 hPa | 0 mm | - | - | - |
| 1788466203 | 35° C | 35% | 1012.1 hPa | 0 mm | - | - | - |
* Rain latest hour (hover to see other rain measurements)
** Current wind speed in m/s (hover to see current wind gust speed)